Regional Weather Roundup
Issued by NWS

Home | Current Version | Previous Version | Text Only | Print | Product List | Glossary Off
Versions: 1 2 3 4 5 6 7 8 9 10 11 12 13 14 15 16 17 18 19 20 21 22 23 24 25 26 27 28 29 30 31 32 33 34 35 36 37 38 39 40 41 42 43 44 45 46 47 48 49 50

000
ASUS45 KBOU 271607
RWRCO

WEATHER ROUNDUP FOR COLORADO
NATIONAL WEATHER SERVICE DENVER/BOULDER CO
1000 AM MDT WED AUG 27 2014

NOTE: "FAIR" INDICATES FEW OR NO CLOUDS BELOW 12000 FEET WITH NO
SIGNIFICANT WEATHER AND/OR OBSTRUCTIONS TO VISIBILITY.

COZ001>005-013-030-031-271700-
...NORTHWEST COLORADO...

CITY           SKY/WX    TMP DP  RH WIND       PRES   REMARKS
CRAIG          PTSUNNY   56  52  86 E3        30.30F
HAYDEN         PTSUNNY   55  48  76 CALM      30.31S
MEEKER         CLOUDY    58  53  84 N3        30.30F
MOUNT WERNER   NOT AVBL
STEAMBOAT SPGS CLOUDY    54  51  90 CALM      30.32S
WALDEN         CLOUDY    54  45  71 S8        30.36S
$$

COZ006>008-011-271700-
...WEST CENTRAL VALLEYS...

CITY           SKY/WX    TMP DP  RH WIND       PRES   REMARKS
GRAND JUNCTION MOSUNNY   64  54  69 SE8       30.25R
MONTROSE       CLOUDY    61  54  77 CALM      30.33R
EAGLE          MOSUNNY   61  54  77 CALM      30.32F
RIFLE          RAIN      58  54  86 S6        30.30R FOG
DELTA          RAIN      65  55  69 E6        30.30S
NUCLA          MOSUNNY   61  52  72 CALM      30.37R
$$

COZ017>023-064>068-271700-
...SOUTHWEST COLORADO...

CITY           SKY/WX    TMP DP  RH WIND       PRES   REMARKS
DURANGO        PTSUNNY   56  51  84 SE5       30.39R
CORTEZ         MOSUNNY   59  53  80 VRB5      30.35S
PAGOSA SPRINGS CLOUDY    55  51  88 CALM      30.43S
TELLURIDE      CLOUDY    54  45  71 CALM      30.46S
WOLF CREEK PAS FOG       37  37 100 SW14      30.60F VSB 1/4
$$

COZ009-010-012-014-032>034-037-058>063-271700-
...CENTRAL COLORADO...

CITY           SKY/WX    TMP DP  RH WIND       PRES   REMARKS
ASPEN          PTSUNNY   57  48  72 CALM      30.35F
BUENA VISTA    MOSUNNY   60  48  66 SE5       30.36S
COPPER MTN     HAZE      45  37  76 SW8       30.57S VSB 3/4
BERTHOUD PASS  FOG       36  34  93 N10G17    30.60R VSB<1/4
COTTONWOOD PAS MOSUNNY   57  39  51 SW9G16    30.46S
GUNNISON       MOSUNNY   55  46  71 CALM      30.42S
KREMMLING      MOSUNNY   59  46  63 SE5       30.35S
LEADVILLE      SUNNY     53  40  61 NW5       30.44F
MONARCH PASS   FOG       39  37  93 W22       30.68S VSB<1/4
SALIDA         MOSUNNY   64  51  62 SW8       30.40F
SUNLIGHT       RAIN      43  41  93 SW3       30.51F VSB 3/4
WILKERSON PASS NOT AVBL
$$

COZ069>075-271700-
...SAN LUIS VALLEY/SANGRE DE CRISTO MOUNTAINS...

CITY           SKY/WX    TMP DP  RH WIND       PRES   REMARKS
ALAMOSA        PTSUNNY   62  50  64 CALM      30.37R
LA VETA PASS   NOT AVBL
SAGUACHE       SUNNY     55  46  71 CALM      30.39F
$$

COZ035-036-038>040-271700-
...NORTHERN COLORADO FRONT RANGE...

CITY           SKY/WX    TMP DP  RH WIND       PRES   REMARKS
DENVER INTL AP CLOUDY    64  56  75 N6        30.19R
DMNS CITY PARK   N/A     66  55  69 N5        30.19S
AURORA         PTSUNNY   63  56  76 NW5       30.21R
FRONT RANGE AP NOT AVBL
ERIE MUNI ARPT CLOUDY    64  56  77 NE7       30.18R
BOULDER MUN AP CLOUDY    63  55  77 CALM      30.19R
CENTENNIAL     PTSUNNY   63  53  70 NW7       30.21R
BROOMFIELD     PTSUNNY   64  55  72 N8        30.21R
FORT COLLINS   CLOUDY    64  55  72 NE8       30.19S
LONGMONT       CLOUDY    67  57  71 NE6       30.19S
$$

COZ041-046-047-076>085-087-088-271700-
...PIKES PEAK/PALMER DIVIDE AND SOUTHERN FOOTHILLS...

CITY           SKY/WX    TMP DP  RH WIND       PRES   REMARKS
COLO. SPRINGS  PTSUNNY   64  57  78 SE8       30.25S
A. F. ACADEMY  PTSUNNY   60  56  88 S8        30.26R
ELLICOTT       PTSUNNY   63  56  78 MISG      30.24R
FALCON         PTSUNNY   62  56  81 SE5       30.29R
FORT CARSON    PTSUNNY   64  55  72 S3        30.22F
LIMON          MOSUNNY   66  58  75 S14       30.20F
MONUMENT HILL  PTSUNNY   63  50  63 SW8       30.27R
TRINIDAD       MOSUNNY   70  57  63 S9        30.23S
$$

COZ042>045-048>051-090-091-271700-
...NORTHEAST COLORADO...

CITY           SKY/WX    TMP DP  RH WIND       PRES   REMARKS
GREELEY ARPT   CLOUDY    64  54  68 CALM      30.18R
AKRON          CLOUDY    69  60  73 S15G25    30.16S
BURLINGTON     CLOUDY    69  62  78 S14G28    30.15F
WRAY             N/A     71  62  75 S10       30.14F
STERLING       PTSUNNY   73  64  73 S7        30.12F
HOLYOKE        CLOUDY    72  64  78 S12       30.14F
FORT MORGAN    PTSUNNY   67  60  77 S8        30.16S
$$

COZ086-089-092>099-271700-
...SOUTHEAST COLORADO...

CITY           SKY/WX    TMP DP  RH WIND       PRES   REMARKS
PUEBLO         PTSUNNY   68  59  73 VRB3      30.17S
LA JUNTA       CLOUDY    69  63  81 W9        30.14R
LAMAR          MOSUNNY   76  63  64 SW12      30.10F
SPRINGFIELD      N/A     68  63  84 S20       30.16S
$$



USA.gov is the U.S. government's official web portal to all federal, state and local government web resources and services.